Gastonia, NC

5:45 AM EST on December 09, 2019 (GMT -0500)
Gastonia Municipal

Weather History for KAKH - November, 2019

Change the Weather History Date:

Tuesday, November 12, 2019

  Actual Average (WUND) Record (WUND)
Temperature  
Mean Temperature 44 °F -  
Max Temperature 57 °F - - (-1)
Min Temperature 30 °F - - (-1)
Degree Days  
Heating Degree Days 20    
Moisture  
Dew Point 41 °F    
Average Humidity 75    
Maximum Humidity 89    
Minimum Humidity 42    
Precipitation  
Precipitation 0.55 in - - ()
Sea Level Pressure  
Sea Level Pressure 29.97 in    
Wind  
Wind Speed 5 mph ()    
Max Wind Speed 14 mph    
Max Gust Speed 22 mph    
Visibility 6.3 miles    
Events Rain    
Averages and records for this station are not official NWS values.
T = Trace of Precipitation, MM = Missing Value Source: Averaged Metar Reports

Daily Weather History Graph

Daily Weather History Graph

Search for Another Location

Airport or City:

Astronomy

Nov. 12, 2019 Rise Set
Actual Time 6:56 AM EST 5:20 PM EST
Civil Twilight 6:29 AM EST 5:47 PM EST
Nautical Twilight 5:58 AM EST 6:18 PM EST
Astronomical Twilight 5:29 AM EST 6:47 PM EST
Moon 5:46 PM EST (11/12) 6:48 AM EST (11/12)
Length of Visible Light 11h 18m
Length of Day
10h 24m
Full, 100% of the Moon is Illuminated
Nov 12
Full
Nov 19
Last Quarter
Nov 26
New
Dec 4
First Quarter
Dec 12
Full

Hourly Weather History & Observations

Time (EST) Temp. Windchill Dew Point Humidity Pressure Visibility Wind Dir Wind Speed Gust Speed Precip Events Conditions
12:54 AM 57.0 °F - 44.1 °F 62% 29.96 in 10.0 mi Variable 3.5 mph - 0.00 in Rain Light Rain
1:54 AM 55.9 °F - 44.1 °F 64% 29.94 in 10.0 mi SSW 4.6 mph - 0.00 in   Scattered Clouds
2:54 AM 54.0 °F - 45.0 °F 72% 29.91 in 10.0 mi SSW 4.6 mph - 0.00 in Rain Light Rain
3:54 AM 54.0 °F - 45.0 °F 72% 29.88 in 10.0 mi SSW 4.6 mph - 0.00 in Rain Light Rain
4:54 AM 55.0 °F - 45.0 °F 69% 29.87 in 10.0 mi SSW 3.5 mph - 0.00 in   Overcast
5:42 AM 54.0 °F - 46.9 °F 77% 29.88 in 5.0 mi SSW 4.6 mph - 0.01 in Rain Light Rain
5:49 AM 53.6 °F - 48.2 °F 82% 29.87 in 5.0 mi SSW 4.6 mph - 0.02 in Rain Light Rain
5:54 AM 53.1 °F - 48.0 °F 83% 29.87 in 5.0 mi SSW 3.5 mph - 0.02 in Rain Light Rain
6:18 AM 53.1 °F - 50.0 °F 89% 29.87 in 2.5 mi Calm Calm - 0.03 in Rain Light Rain
6:31 AM 53.1 °F - 50.0 °F 89% 29.86 in 3.0 mi Calm Calm - 0.04 in Rain Light Rain
6:54 AM 54.0 °F - 50.0 °F 86% 29.86 in 4.0 mi Calm Calm - 0.05 in Rain Light Rain
7:12 AM 54.0 °F - 50.0 °F 86% 29.87 in 1.8 mi Calm Calm - 0.05 in Rain Heavy Rain
7:26 AM 54.0 °F - 50.0 °F 86% 29.88 in 2.5 mi Variable 3.5 mph - 0.08 in Rain Light Rain
7:52 AM 53.6 °F - 50.0 °F 88% 29.92 in 2.5 mi WNW 4.6 mph - 0.15 in Rain Rain
7:54 AM 54.0 °F - 50.0 °F 86% 29.91 in 2.5 mi Variable 3.5 mph - 0.15 in Rain Rain
8:01 AM 54.0 °F - 50.0 °F 86% 29.91 in 2.0 mi Variable 4.6 mph - 0.02 in Rain Rain
8:09 AM 54.0 °F - 50.0 °F 86% 29.90 in 2.0 mi Variable 4.6 mph - 0.04 in Rain Rain
8:18 AM 54.0 °F - 50.0 °F 86% 29.90 in 2.5 mi North 3.5 mph - 0.06 in Rain Rain
8:32 AM 54.0 °F - 50.0 °F 86% 29.92 in 3.0 mi Calm Calm - 0.08 in Rain Rain
8:39 AM 54.0 °F - 50.0 °F 86% 29.93 in 3.0 mi Variable 4.6 mph - 0.09 in Rain Light Rain
8:46 AM 53.1 °F - 48.9 °F 86% 29.94 in 3.0 mi NNW 5.8 mph - 0.10 in Rain Rain
8:54 AM 53.1 °F - 48.0 °F 83% 29.94 in 3.0 mi NNW 9.2 mph - 0.12 in Rain Rain
9:03 AM 51.1 °F - 46.0 °F 83% 29.95 in 3.0 mi NNW 8.1 mph - 0.02 in Rain Rain
9:12 AM 50.0 °F - 45.0 °F 83% 29.96 in 5.0 mi NNW 10.4 mph 16.1 mph 0.02 in Rain Light Rain
9:18 AM 50.0 °F - 44.1 °F 80% 29.95 in 7.0 mi Variable 5.8 mph 16.1 mph 0.03 in Rain Light Rain
9:54 AM 48.0 °F - 42.1 °F 80% 29.96 in 8.0 mi North 10.4 mph 19.6 mph 0.05 in Rain Light Rain
10:54 AM 45.0 °F 40.6 °F 39.9 °F 82% 29.98 in 4.0 mi NNW 8.1 mph - 0.10 in Rain Rain
11:17 AM 45.0 °F 41.2 °F 41.0 °F 86% 30.00 in 5.0 mi North 6.9 mph - 0.03 in Rain Light Rain
11:24 AM 44.1 °F 37.7 °F 39.0 °F 82% 30.01 in 5.0 mi North 12.7 mph 18.4 mph 0.04 in Rain Light Rain
11:34 AM 43.0 °F 36.4 °F 37.0 °F 80% 30.00 in 6.0 mi NNE 12.7 mph - 0.05 in Rain Light Rain
11:45 AM 43.0 °F 36.8 °F 37.0 °F 80% 30.00 in 10.0 mi North 11.5 mph - 0.05 in Rain Light Rain
11:54 AM 42.1 °F 35.7 °F 36.0 °F 79% 30.00 in 9.0 mi North 11.5 mph - 0.05 in Rain Light Rain
12:54 PM 43.0 °F 37.2 °F 34.0 °F 71% 30.00 in 10.0 mi North 10.4 mph 18.4 mph 0.01 in   Overcast
1:54 PM 43.0 °F 38.2 °F 33.1 °F 68% 30.00 in 10.0 mi North 8.1 mph - N/A   Overcast
2:54 PM 46.9 °F - 35.1 °F 63% 30.01 in 10.0 mi NE 11.5 mph - N/A   Mostly Cloudy
3:54 PM 48.0 °F - 30.0 °F 50% 30.03 in 10.0 mi North 5.8 mph - N/A   Clear
4:54 PM 44.1 °F 37.4 °F 21.9 °F 42% 30.07 in 10.0 mi North 13.8 mph - N/A   Clear
5:54 PM 39.9 °F 33.9 °F 19.0 °F 43% 30.11 in 10.0 mi North 9.2 mph 21.9 mph N/A   Clear
6:54 PM 37.0 °F 29.3 °F 17.1 °F 44% 30.16 in 10.0 mi North 11.5 mph 19.6 mph N/A   Clear
7:54 PM 34.0 °F 25.0 °F 16.0 °F 48% 30.20 in 10.0 mi North 12.7 mph 17.3 mph N/A   Clear
8:54 PM 32.0 °F 23.6 °F 16.0 °F 52% 30.24 in 10.0 mi North 10.4 mph - N/A   Clear
10:54 PM 30.9 °F 24.3 °F 16.0 °F 54% 30.28 in 10.0 mi NNE 6.9 mph - N/A   Clear